EWG31H EDDL-LTAI

Flight info

Callsign EWG31H
Flight time 2h 54m
Altitude 35000
Route DODEN4H DODEN Y853 BOMBI DCT ESATI DCT OSBIT/N0462F390 DCT TENLO DCT LAMSI DCT SITNI DCT SASAL DCT BABIT DCT NISVA/N0466F410 N131 RODIP DCT BELGI UN131 KOZLU
Aircraft A343/H-SDE2E3FGHIJ4J5M1RWXY/LB1D1

Departure

Time 2026-05-04 20:15
Airport Düsseldorf Airport (EDDL)

Arrival

Time 2026-05-04 23:09
Airport Antalya International Airport (LTAI)
Time Latitude Longitude Altitude Speed Heading
2026-05-04 19:21 51.27615 6.76289 133 ft 0 kts
2026-05-04 19:21 51.27608 6.76287 130 ft 0 kts
2026-05-04 19:45 51.27605 6.76287 133 ft 3 kts
2026-05-04 19:45 51.27582 6.76282 129 ft 3 kts
2026-05-04 19:45 51.27558 6.76282 134 ft 4 kts 330°
2026-05-04 19:46 51.27544 6.76310 130 ft 4 kts 272°
2026-05-04 19:46 51.27549 6.76350 134 ft 4 kts 249°
2026-05-04 19:46 51.27558 6.76388 131 ft 2 kts 249°
2026-05-04 19:46 51.27558 6.76390 131 ft 0 kts 249°
2026-05-04 19:50 51.27557 6.76383 130 ft 2 kts 249°
2026-05-04 19:51 51.27553 6.76367 133 ft 1 kts 249°
2026-05-04 19:51 51.27543 6.76327 134 ft 8 kts 249°
2026-05-04 19:51 51.27523 6.76243 134 ft 7 kts 249°
2026-05-04 19:51 51.27515 6.76180 135 ft 8 kts 267°
2026-05-04 19:52 51.27538 6.76110 125 ft 6 kts 319°
2026-05-04 19:52 51.27570 6.76084 125 ft 7 kts 335°
2026-05-04 19:52 51.27632 6.76046 129 ft 10 kts 346°
2026-05-04 19:52 51.27695 6.76040 127 ft 8 kts
2026-05-04 19:53 51.27749 6.76043 131 ft 7 kts
2026-05-04 19:53 51.27806 6.76044 132 ft 11 kts 360°
2026-05-04 19:53 51.27887 6.76045 130 ft 11 kts
2026-05-04 19:53 51.27953 6.76047 132 ft 3 kts 359°
2026-05-04 19:54 51.27965 6.76046 132 ft 0 kts 359°
2026-05-04 19:55 51.27966 6.76046 132 ft 2 kts 359°
2026-05-04 19:55 51.28020 6.76047 124 ft 11 kts
2026-05-04 19:55 51.28080 6.76108 130 ft 10 kts 51°
2026-05-04 19:56 51.28124 6.76200 130 ft 13 kts 52°
2026-05-04 19:56 51.28165 6.76253 126 ft 4 kts
2026-05-04 19:56 51.28192 6.76241 122 ft 4 kts 342°
2026-05-04 19:56 51.28220 6.76241 125 ft 8 kts
2026-05-04 19:57 51.28273 6.76318 126 ft 11 kts 55°
2026-05-04 19:57 51.28324 6.76432 125 ft 14 kts 54°
2026-05-04 19:57 51.28365 6.76526 124 ft 17 kts 55°
2026-05-04 19:57 51.28466 6.76729 125 ft 18 kts 52°
2026-05-04 19:58 51.28514 6.76828 125 ft 17 kts 52°
2026-05-04 19:58 51.28581 6.76965 127 ft 15 kts 52°
2026-05-04 19:58 51.28654 6.77120 130 ft 19 kts 53°
2026-05-04 19:58 51.28732 6.77283 128 ft 18 kts 52°
2026-05-04 19:59 51.28809 6.77442 130 ft 18 kts 53°
2026-05-04 19:59 51.28883 6.77599 127 ft 17 kts 53°
2026-05-04 19:59 51.28955 6.77752 127 ft 17 kts 53°
2026-05-04 19:59 51.29025 6.77899 129 ft 17 kts 52°
2026-05-04 20:00 51.29095 6.78044 135 ft 16 kts 52°
2026-05-04 20:00 51.29154 6.78168 139 ft 12 kts 52°
2026-05-04 20:00 51.29198 6.78259 142 ft 4 kts 52°
2026-05-04 20:00 51.29202 6.78267 143 ft 0 kts 52°
2026-05-04 20:01 51.29205 6.78275 143 ft 3 kts 53°
2026-05-04 20:01 51.29227 6.78322 145 ft 5 kts 53°
2026-05-04 20:02 51.29236 6.78342 146 ft 0 kts 53°
2026-05-04 20:02 51.29246 6.78361 147 ft 4 kts 53°
2026-05-04 20:02 51.29253 6.78378 147 ft 0 kts 53°
2026-05-04 20:03 51.29254 6.78380 147 ft 2 kts 53°
2026-05-04 20:03 51.29269 6.78412 149 ft 0 kts 53°
2026-05-04 20:04 51.29270 6.78413 149 ft 1 kts 53°
2026-05-04 20:04 51.29283 6.78441 150 ft 4 kts 53°
2026-05-04 20:04 51.29287 6.78450 150 ft 0 kts 53°
2026-05-04 20:05 51.29287 6.78451 150 ft 0 kts 53°
2026-05-04 20:05 51.29296 6.78468 151 ft 0 kts 53°
2026-05-04 20:07 51.29298 6.78472 151 ft 3 kts 53°
2026-05-04 20:08 51.29320 6.78520 153 ft 6 kts 51°
2026-05-04 20:08 51.29338 6.78548 155 ft 1 kts 43°
2026-05-04 20:08 51.29340 6.78550 155 ft 0 kts 41°
2026-05-04 20:09 51.29348 6.78559 155 ft 3 kts 34°
2026-05-04 20:09 51.29350 6.78561 155 ft 0 kts 30°
2026-05-04 20:10 51.29354 6.78564 156 ft 4 kts 28°
2026-05-04 20:11 51.29402 6.78571 156 ft 6 kts 357°
2026-05-04 20:11 51.29424 6.78569 156 ft 0 kts 355°
2026-05-04 20:11 51.29425 6.78569 156 ft 2 kts 355°
2026-05-04 20:12 51.29489 6.78550 156 ft 10 kts 347°
2026-05-04 20:12 51.29521 6.78481 155 ft 9 kts 250°
2026-05-04 20:12 51.29497 6.78423 157 ft 3 kts 233°
2026-05-04 20:12 51.29490 6.78410 154 ft 0 kts 232°
2026-05-04 20:13 51.29488 6.78405 154 ft 3 kts 232°
2026-05-04 20:14 51.29422 6.78270 149 ft 41 kts 232°
2026-05-04 20:14 51.29115 6.77621 131 ft 103 kts 233°
2026-05-04 20:14 51.28583 6.76502 145 ft 148 kts 231°
2026-05-04 20:14 51.27945 6.75150 590 ft 154 kts 231°
2026-05-04 20:15 51.27301 6.73753 1170 ft 158 kts 232°
2026-05-04 20:15 51.26643 6.72322 1745 ft 165 kts 232°
2026-05-04 20:15 51.25922 6.70754 2106 ft 187 kts 232°
2026-05-04 20:15 51.25102 6.68982 2454 ft 213 kts 232°
2026-05-04 20:16 51.24166 6.66971 2948 ft 235 kts 232°
2026-05-04 20:16 51.23115 6.64876 3657 ft 247 kts 224°
2026-05-04 20:16 51.21612 6.63562 4465 ft 253 kts 190°
2026-05-04 20:16 51.19838 6.63546 5341 ft 259 kts 175°
2026-05-04 20:17 51.18031 6.63875 6231 ft 263 kts 173°
2026-05-04 20:17 51.16214 6.64393 7067 ft 268 kts 163°
2026-05-04 20:17 51.14568 6.65804 7926 ft 272 kts 141°
2026-05-04 20:17 51.13445 6.68220 8911 ft 277 kts 117°
2026-05-04 20:18 51.13043 6.71260 9775 ft 288 kts 94°
2026-05-04 20:18 51.13129 6.74503 10377 ft 301 kts 89°
2026-05-04 20:18 51.13293 6.77933 10716 ft 320 kts 88°
2026-05-04 20:18 51.13460 6.81568 11031 ft 338 kts 89°
2026-05-04 20:19 51.13622 6.85401 11359 ft 355 kts 89°
2026-05-04 20:19 51.13780 6.89405 11751 ft 368 kts 89°
2026-05-04 20:19 51.13937 6.93521 12343 ft 375 kts 89°
2026-05-04 20:19 51.14093 6.97696 12991 ft 380 kts 89°
2026-05-04 20:20 51.14218 7.01872 13651 ft 384 kts 92°
2026-05-04 20:20 51.13939 7.06098 14273 ft 385 kts 105°
2026-05-04 20:20 51.12966 7.10046 14884 ft 384 kts 123°
2026-05-04 20:20 51.11410 7.13493 15519 ft 385 kts 131°
2026-05-04 20:21 51.09711 7.16805 16135 ft 389 kts 132°
2026-05-04 20:21 51.07973 7.20123 16768 ft 393 kts 132°
2026-05-04 20:21 51.04432 7.26853 18050 ft 400 kts 133°
2026-05-04 20:22 51.02631 7.30265 18624 ft 404 kts 133°
2026-05-04 20:22 51.00816 7.33700 19164 ft 408 kts 133°
2026-05-04 20:22 50.98978 7.37173 19696 ft 412 kts 133°
2026-05-04 20:22 50.97126 7.40667 20229 ft 416 kts 133°
2026-05-04 20:23 50.95254 7.44194 20766 ft 419 kts 133°
2026-05-04 20:23 50.93366 7.47748 21286 ft 423 kts 133°
2026-05-04 20:23 50.91462 7.51326 21808 ft 427 kts 133°
2026-05-04 20:23 50.89535 7.54941 22284 ft 430 kts 133°
2026-05-04 20:24 50.87592 7.58582 22770 ft 434 kts 133°
2026-05-04 20:24 50.85748 7.62405 23279 ft 440 kts 126°
2026-05-04 20:24 50.84121 7.66539 23730 ft 444 kts 123°
2026-05-04 20:24 50.82577 7.70725 24134 ft 447 kts 122°
2026-05-04 20:25 50.81053 7.75024 24582 ft 449 kts 122°
2026-05-04 20:25 50.79543 7.79362 25002 ft 451 kts 122°
2026-05-04 20:25 50.78032 7.83719 25423 ft 453 kts 122°
2026-05-04 20:25 50.76512 7.88094 25835 ft 455 kts 122°
2026-05-04 20:26 50.74981 7.92477 26238 ft 457 kts 122°
2026-05-04 20:26 50.73435 7.96879 26629 ft 459 kts 122°
2026-05-04 20:26 50.71880 8.01286 26988 ft 461 kts 123°
2026-05-04 20:26 50.70310 8.05723 27349 ft 464 kts 123°
2026-05-04 20:27 50.68731 8.10171 27722 ft 466 kts 123°
2026-05-04 20:27 50.67144 8.14631 28088 ft 468 kts 123°
2026-05-04 20:27 50.65546 8.19117 28439 ft 470 kts 123°
2026-05-04 20:27 50.63939 8.23620 28767 ft 472 kts 123°
2026-05-04 20:28 50.62326 8.28135 29111 ft 474 kts 123°
2026-05-04 20:28 50.60706 8.32659 29433 ft 476 kts 123°
2026-05-04 20:28 50.59076 8.37205 29777 ft 477 kts 123°
2026-05-04 20:28 50.57440 8.41758 30034 ft 480 kts 123°
2026-05-04 20:29 50.55808 8.46290 30231 ft 483 kts 123°
2026-05-04 20:29 50.54152 8.50887 30592 ft 482 kts 123°
2026-05-04 20:29 50.52497 8.55472 30997 ft 481 kts 123°
2026-05-04 20:29 50.50848 8.60032 31368 ft 480 kts 123°
2026-05-04 20:30 50.49199 8.64587 31727 ft 479 kts 124°
2026-05-04 20:30 50.47550 8.69130 32083 ft 478 kts 124°
2026-05-04 20:30 50.45903 8.73657 32439 ft 477 kts 124°
2026-05-04 20:30 50.44261 8.78163 32792 ft 476 kts 124°
2026-05-04 20:31 50.42616 8.82671 33131 ft 475 kts 124°
2026-05-04 20:31 50.40972 8.87166 33454 ft 474 kts 124°
2026-05-04 20:31 50.39329 8.91651 33801 ft 473 kts 124°
2026-05-04 20:31 50.37689 8.96120 34104 ft 473 kts 125°
2026-05-04 20:32 50.36048 9.00585 34379 ft 472 kts 124°
2026-05-04 20:32 50.34430 9.04978 34644 ft 472 kts 124°
2026-05-04 20:32 50.32788 9.09429 34894 ft 471 kts 124°
2026-05-04 20:32 50.31139 9.13887 34981 ft 475 kts 124°
2026-05-04 20:33 50.27781 9.22937 34964 ft 486 kts 124°
2026-05-04 20:33 50.24390 9.32064 35102 ft 485 kts 124°
2026-05-04 20:34 50.22696 9.36613 35377 ft 484 kts 124°
2026-05-04 20:34 50.21003 9.41153 35622 ft 483 kts 124°
2026-05-04 20:34 50.19309 9.45686 35847 ft 483 kts 124°
2026-05-04 20:34 50.17607 9.50228 36053 ft 483 kts 124°
2026-05-04 20:35 50.15910 9.54746 36272 ft 483 kts 124°
2026-05-04 20:35 50.14212 9.59262 36468 ft 483 kts 124°
2026-05-04 20:35 50.12533 9.63719 36669 ft 483 kts 124°
2026-05-04 20:35 50.10829 9.68236 36833 ft 483 kts 124°
2026-05-04 20:36 50.09123 9.72747 37027 ft 483 kts 124°
2026-05-04 20:36 50.07413 9.77263 37248 ft 483 kts 124°
2026-05-04 20:36 50.05692 9.81742 37445 ft 482 kts 126°
2026-05-04 20:36 50.03884 9.86134 37675 ft 481 kts 127°
2026-05-04 20:37 50.02032 9.90449 37855 ft 480 kts 128°
2026-05-04 20:37 50.00162 9.94751 38038 ft 480 kts 128°
2026-05-04 20:37 49.98295 9.99053 38256 ft 479 kts 128°
2026-05-04 20:37 49.96442 10.03347 38538 ft 478 kts 127°
2026-05-04 20:38 49.94597 10.07646 38652 ft 478 kts 127°
2026-05-04 20:38 49.92755 10.11952 38746 ft 480 kts 127°
2026-05-04 20:38 49.90911 10.16270 38879 ft 480 kts 127°
2026-05-04 20:38 49.89065 10.20592 38951 ft 481 kts 127°
2026-05-04 20:39 49.85376 10.29207 38955 ft 481 kts 127°
2026-05-04 20:39 49.81670 10.37836 38951 ft 480 kts 127°
2026-05-04 20:40 49.77960 10.46440 38945 ft 480 kts 127°
2026-05-04 20:40 49.74238 10.55039 38950 ft 481 kts 128°
2026-05-04 20:41 49.70504 10.63641 38937 ft 482 kts 128°
2026-05-04 20:41 49.66793 10.72162 38938 ft 480 kts 128°
2026-05-04 20:42 49.63062 10.80704 38940 ft 480 kts 128°
2026-05-04 20:42 49.59319 10.89244 38936 ft 481 kts 128°
2026-05-04 20:43 49.55552 10.97809 38938 ft 483 kts 128°
2026-05-04 20:43 49.51972 11.06606 38939 ft 487 kts 121°
2026-05-04 20:44 49.49363 11.14296 38938 ft 488 kts 120°
2026-05-04 20:44 49.46304 11.23615 38939 ft 488 kts 120°
2026-05-04 20:45 49.43247 11.32946 38930 ft 489 kts 120°
2026-05-04 20:45 49.40185 11.42217 38929 ft 489 kts 120°
2026-05-04 20:46 49.37092 11.51520 38932 ft 489 kts 120°
2026-05-04 20:46 49.33986 11.60796 38929 ft 489 kts 120°
2026-05-04 20:47 49.30863 11.70069 38929 ft 489 kts 120°
2026-05-04 20:47 49.27736 11.79325 38928 ft 489 kts 120°
2026-05-04 20:48 49.24611 11.88577 38926 ft 489 kts 120°
2026-05-04 20:48 49.21493 11.97840 38941 ft 489 kts 120°
2026-05-04 20:49 49.18389 12.07008 38924 ft 489 kts 120°
2026-05-04 20:49 49.15252 12.16229 38935 ft 488 kts 120°
2026-05-04 20:50 49.12111 12.25429 38912 ft 488 kts 120°
2026-05-04 20:50 49.08954 12.34629 38909 ft 488 kts 120°
2026-05-04 20:51 49.05789 12.43811 38902 ft 488 kts 120°
2026-05-04 20:51 49.02619 12.52972 38911 ft 488 kts 120°
2026-05-04 20:52 48.99442 12.62119 38906 ft 488 kts 120°
2026-05-04 20:52 48.96259 12.71255 38904 ft 488 kts 120°
2026-05-04 20:53 48.93090 12.80321 38910 ft 488 kts 120°
2026-05-04 20:53 48.89888 12.89444 38920 ft 491 kts 120°
2026-05-04 20:54 48.86661 12.98605 38912 ft 492 kts 120°
2026-05-04 20:54 48.83427 13.07759 38911 ft 492 kts 120°
2026-05-04 20:55 48.80181 13.16912 38909 ft 492 kts 121°
2026-05-04 20:55 48.76938 13.26026 38910 ft 491 kts 120°
2026-05-04 20:56 48.73701 13.35092 38901 ft 491 kts 121°
2026-05-04 20:56 48.70443 13.44183 38906 ft 491 kts 121°
2026-05-04 20:57 48.67180 13.53255 38909 ft 490 kts 121°
2026-05-04 20:57 48.63608 13.62012 38910 ft 489 kts 127°
2026-05-04 20:58 48.59713 13.70432 38899 ft 489 kts 128°
2026-05-04 20:58 48.55763 13.78789 38901 ft 489 kts 128°
2026-05-04 20:59 48.51809 13.87131 38898 ft 489 kts 128°
2026-05-04 20:59 48.47854 13.95471 38890 ft 489 kts 128°
2026-05-04 21:00 48.43913 14.03769 38895 ft 491 kts 128°
2026-05-04 21:00 48.39934 14.12117 38922 ft 491 kts 128°
2026-05-04 21:01 48.35941 14.20454 38935 ft 490 kts 128°
2026-05-04 21:01 48.31949 14.28768 38942 ft 490 kts 128°
2026-05-04 21:02 48.27957 14.37078 38930 ft 491 kts 128°
2026-05-04 21:02 48.23957 14.45387 38924 ft 491 kts 128°
2026-05-04 21:03 48.19947 14.53683 38913 ft 491 kts 128°
2026-05-04 21:03 48.15957 14.61908 38902 ft 491 kts 128°
2026-05-04 21:04 48.11932 14.70176 38893 ft 491 kts 128°
2026-05-04 21:04 48.07894 14.78446 38899 ft 491 kts 128°
2026-05-04 21:05 48.03872 14.86707 38904 ft 491 kts 127°
2026-05-04 21:05 48.00015 14.95135 38909 ft 492 kts 125°
2026-05-04 21:06 47.96199 15.03608 38908 ft 492 kts 125°
2026-05-04 21:06 47.92376 15.11997 38919 ft 492 kts 125°
2026-05-04 21:07 47.88507 15.20405 38930 ft 492 kts 126°
2026-05-04 21:07 47.84617 15.28817 38939 ft 492 kts 126°
2026-05-04 21:08 47.80729 15.37200 38946 ft 492 kts 125°
2026-05-04 21:08 47.76818 15.45607 38961 ft 493 kts 126°
2026-05-04 21:09 47.72933 15.53936 38968 ft 494 kts 126°
2026-05-04 21:09 47.69005 15.62330 38968 ft 495 kts 126°
2026-05-04 21:10 47.65074 15.70705 38975 ft 494 kts 126°
2026-05-04 21:10 47.61147 15.79044 38971 ft 492 kts 126°
2026-05-04 21:11 47.57233 15.87335 38972 ft 491 kts 126°
2026-05-04 21:11 47.53311 15.95617 38964 ft 491 kts 126°
2026-05-04 21:12 47.49382 16.03887 38977 ft 491 kts 126°
2026-05-04 21:12 47.45470 16.12095 38966 ft 491 kts 126°
2026-05-04 21:13 47.41526 16.20347 38965 ft 491 kts 126°
2026-05-04 21:13 47.37576 16.28587 38968 ft 491 kts 126°
2026-05-04 21:14 47.33620 16.36816 38971 ft 491 kts 126°
2026-05-04 21:14 47.29653 16.45042 38971 ft 491 kts 126°
2026-05-04 21:15 47.25621 16.53172 38976 ft 491 kts 128°
2026-05-04 21:15 47.21420 16.61016 38967 ft 491 kts 129°
2026-05-04 21:16 47.17174 16.68877 38976 ft 491 kts 129°
2026-05-04 21:16 47.12952 16.76760 38976 ft 491 kts 129°
2026-05-04 21:17 47.08734 16.84662 38981 ft 491 kts 129°
2026-05-04 21:17 47.04519 16.92547 38988 ft 491 kts 129°
2026-05-04 21:18 47.00295 17.00421 38992 ft 491 kts 129°
2026-05-04 21:18 46.96064 17.08284 39004 ft 491 kts 129°
2026-05-04 21:19 46.91831 17.16128 39006 ft 492 kts 129°
2026-05-04 21:19 46.87611 17.23925 39015 ft 492 kts 129°
2026-05-04 21:20 46.83353 17.31769 39016 ft 492 kts 129°
2026-05-04 21:20 46.79091 17.39600 39017 ft 492 kts 129°
2026-05-04 21:21 46.74822 17.47421 39017 ft 492 kts 129°
2026-05-04 21:21 46.70547 17.55231 39015 ft 492 kts 129°
2026-05-04 21:22 46.66269 17.63025 39019 ft 492 kts 129°
2026-05-04 21:22 46.62017 17.70749 39017 ft 493 kts 129°
2026-05-04 21:23 46.57727 17.78520 39024 ft 493 kts 129°
2026-05-04 21:23 46.53426 17.86289 39026 ft 493 kts 129°
2026-05-04 21:24 46.49121 17.94045 39029 ft 493 kts 129°
2026-05-04 21:24 46.44808 18.01791 39032 ft 493 kts 129°
2026-05-04 21:25 46.40497 18.09514 39032 ft 493 kts 129°
2026-05-04 21:25 46.36176 18.17233 39037 ft 493 kts 129°
2026-05-04 21:26 46.31852 18.24936 39041 ft 493 kts 129°
2026-05-04 21:26 46.27518 18.32635 39049 ft 493 kts 129°
2026-05-04 21:27 46.23180 18.40320 39055 ft 493 kts 129°
2026-05-04 21:27 46.18839 18.47989 39060 ft 493 kts 129°
2026-05-04 21:28 46.14514 18.55608 39059 ft 493 kts 129°
2026-05-04 21:28 46.10155 18.63268 39059 ft 493 kts 129°
2026-05-04 21:29 46.05798 18.70900 39056 ft 493 kts 129°
2026-05-04 21:29 46.01429 18.78536 39058 ft 494 kts 129°
2026-05-04 21:30 45.97057 18.86153 39061 ft 494 kts 129°
2026-05-04 21:30 45.92596 18.93600 39065 ft 494 kts 134°
2026-05-04 21:31 45.85278 19.04050 39061 ft 494 kts 135°
2026-05-04 21:32 45.80341 19.10929 39064 ft 494 kts 135°
2026-05-04 21:32 45.76236 19.16642 39064 ft 494 kts 135°
2026-05-04 21:33 45.71299 19.23513 39061 ft 495 kts 135°
2026-05-04 21:33 45.66351 19.30388 39064 ft 496 kts 135°
2026-05-04 21:34 45.61401 19.37251 39062 ft 496 kts 135°
2026-05-04 21:34 45.56478 19.44057 39064 ft 496 kts 135°
2026-05-04 21:35 45.51517 19.50898 39061 ft 496 kts 135°
2026-05-04 21:35 45.46550 19.57728 39056 ft 496 kts 136°
2026-05-04 21:36 45.41583 19.64542 39062 ft 496 kts 136°
2026-05-04 21:36 45.36607 19.71350 39061 ft 496 kts 136°
2026-05-04 21:37 45.31626 19.78148 39068 ft 497 kts 136°
2026-05-04 21:37 45.26639 19.84936 39067 ft 497 kts 136°
2026-05-04 21:38 45.21642 19.91722 39067 ft 497 kts 136°
2026-05-04 21:38 45.16637 19.98500 39067 ft 497 kts 136°
2026-05-04 21:39 45.11630 20.05263 39068 ft 498 kts 136°
2026-05-04 21:39 45.06644 20.11981 39067 ft 498 kts 136°
2026-05-04 21:40 45.01617 20.18737 39068 ft 498 kts 136°
2026-05-04 21:40 44.96588 20.25478 39075 ft 498 kts 136°
2026-05-04 21:41 44.91580 20.32176 39076 ft 499 kts 136°
2026-05-04 21:41 44.86527 20.38915 39077 ft 500 kts 136°
2026-05-04 21:42 44.81475 20.45636 39077 ft 500 kts 136°
2026-05-04 21:42 44.76413 20.52353 39085 ft 500 kts 136°
2026-05-04 21:43 44.71344 20.59062 39076 ft 501 kts 136°
2026-05-04 21:43 44.66262 20.65772 39069 ft 502 kts 136°
2026-05-04 21:44 44.61165 20.72485 39076 ft 502 kts 136°
2026-05-04 21:44 44.56070 20.79178 39085 ft 502 kts 136°
2026-05-04 21:45 44.51007 20.85813 39084 ft 502 kts 136°
2026-05-04 21:45 44.45909 20.92476 39084 ft 501 kts 136°
2026-05-04 21:46 44.40798 20.99141 39086 ft 501 kts 136°
2026-05-04 21:46 44.35685 21.05789 39115 ft 502 kts 136°
2026-05-04 21:46 44.33125 21.09113 39236 ft 503 kts 136°
2026-05-04 21:47 44.30561 21.12438 39381 ft 503 kts 136°
2026-05-04 21:47 44.27992 21.15764 39512 ft 503 kts 136°
2026-05-04 21:47 44.25425 21.19083 39672 ft 503 kts 136°
2026-05-04 21:47 44.22855 21.22403 39813 ft 503 kts 136°
2026-05-04 21:48 44.20287 21.25715 39965 ft 503 kts 136°
2026-05-04 21:48 44.17722 21.29021 40107 ft 502 kts 136°
2026-05-04 21:48 44.15190 21.32279 40256 ft 502 kts 136°
2026-05-04 21:48 44.12623 21.35578 40383 ft 502 kts 136°
2026-05-04 21:49 44.10043 21.38890 40427 ft 504 kts 137°
2026-05-04 21:49 44.04875 21.45492 40613 ft 504 kts 136°
2026-05-04 21:49 44.02289 21.48796 40718 ft 504 kts 136°
2026-05-04 21:50 43.99714 21.52091 40823 ft 504 kts 136°
2026-05-04 21:50 43.94537 21.58693 41021 ft 506 kts 136°
2026-05-04 21:51 43.89332 21.65307 41102 ft 506 kts 136°
2026-05-04 21:51 43.84177 21.71845 41101 ft 505 kts 137°
2026-05-04 21:52 43.78988 21.78410 41108 ft 504 kts 136°
2026-05-04 21:52 43.73815 21.84940 41101 ft 503 kts 136°
2026-05-04 21:53 43.68646 21.91448 41103 ft 502 kts 137°
2026-05-04 21:53 43.63477 21.97943 41102 ft 502 kts 137°
2026-05-04 21:54 43.58308 22.04421 41106 ft 502 kts 137°
2026-05-04 21:54 43.53130 22.10895 41114 ft 503 kts 137°
2026-05-04 21:55 43.47938 22.17370 41116 ft 503 kts 137°
2026-05-04 21:55 43.42748 22.23827 41118 ft 503 kts 137°
2026-05-04 21:56 43.37586 22.30234 41117 ft 503 kts 137°
2026-05-04 21:56 43.32388 22.36670 41114 ft 503 kts 137°
2026-05-04 21:57 43.27182 22.43100 41120 ft 504 kts 137°
2026-05-04 21:57 43.21967 22.49527 41129 ft 504 kts 137°
2026-05-04 21:58 43.16754 22.55936 41134 ft 503 kts 137°
2026-05-04 21:58 43.11538 22.62333 41137 ft 503 kts 137°
2026-05-04 21:59 43.06356 22.68672 41135 ft 503 kts 137°
2026-05-04 21:59 43.01131 22.75050 41133 ft 503 kts 137°
2026-05-04 22:00 42.95902 22.81427 41155 ft 503 kts 137°
2026-05-04 22:00 42.90781 22.87941 41139 ft 503 kts 135°
2026-05-04 22:01 42.85702 22.94515 41163 ft 503 kts 135°
2026-05-04 22:01 42.80628 23.01033 41147 ft 503 kts 136°
2026-05-04 22:02 42.75504 23.07562 41134 ft 504 kts 136°
2026-05-04 22:02 42.70369 23.14078 41126 ft 504 kts 136°
2026-05-04 22:03 42.65236 23.20577 41134 ft 504 kts 136°
2026-05-04 22:03 42.60105 23.27059 41130 ft 503 kts 136°
2026-05-04 22:04 42.54974 23.33527 41126 ft 503 kts 136°
2026-05-04 22:04 42.49870 23.39945 41128 ft 504 kts 136°
2026-05-04 22:05 42.44728 23.46396 41139 ft 503 kts 136°
2026-05-04 22:05 42.39584 23.52834 41134 ft 503 kts 136°
2026-05-04 22:06 42.34442 23.59255 41140 ft 503 kts 136°
2026-05-04 22:06 42.29295 23.65668 41137 ft 503 kts 136°
2026-05-04 22:07 42.24103 23.72027 41134 ft 503 kts 137°
2026-05-04 22:07 42.18888 23.78341 41132 ft 503 kts 137°
2026-05-04 22:08 42.13676 23.84648 41135 ft 503 kts 137°
2026-05-04 22:08 42.08505 23.90907 41125 ft 503 kts 137°
2026-05-04 22:09 42.03297 23.97200 41129 ft 503 kts 137°
2026-05-04 22:09 41.98079 24.03495 41119 ft 504 kts 137°
2026-05-04 22:10 41.92852 24.09796 41130 ft 504 kts 137°
2026-05-04 22:10 41.87621 24.16078 41121 ft 504 kts 137°
2026-05-04 22:11 41.82388 24.22344 41127 ft 504 kts 137°
2026-05-04 22:11 41.77183 24.28561 41124 ft 504 kts 137°
2026-05-04 22:12 41.71938 24.34814 41131 ft 505 kts 137°
2026-05-04 22:12 41.66683 24.41062 41131 ft 505 kts 137°
2026-05-04 22:13 41.61431 24.47293 41129 ft 504 kts 137°
2026-05-04 22:13 41.56176 24.53514 41126 ft 504 kts 137°
2026-05-04 22:14 41.50927 24.59714 41127 ft 504 kts 137°
2026-05-04 22:14 41.45700 24.65874 41119 ft 504 kts 137°
2026-05-04 22:15 41.40445 24.72084 41117 ft 504 kts 136°
2026-05-04 22:15 41.35416 24.78597 41107 ft 504 kts 134°
2026-05-04 22:16 41.30476 24.85207 41109 ft 504 kts 134°
2026-05-04 22:16 41.25501 24.91775 41101 ft 504 kts 134°
2026-05-04 22:17 41.20492 24.98299 41103 ft 504 kts 134°
2026-05-04 22:17 41.15465 25.04812 41085 ft 505 kts 134°
2026-05-04 22:18 41.10429 25.11320 41086 ft 505 kts 134°
2026-05-04 22:18 41.05394 25.17816 41078 ft 505 kts 135°
2026-05-04 22:19 41.00352 25.24307 41087 ft 505 kts 135°
2026-05-04 22:19 40.95338 25.30749 41071 ft 505 kts 135°
2026-05-04 22:20 40.90278 25.37235 41077 ft 506 kts 135°
2026-05-04 22:20 40.86078 25.42608 41077 ft 506 kts 135°
2026-05-04 22:21 40.81011 25.49076 41078 ft 506 kts 135°
2026-05-04 22:21 40.75948 25.55524 41080 ft 506 kts 135°
2026-05-04 22:22 40.70881 25.61964 41076 ft 506 kts 135°
2026-05-04 22:22 40.65847 25.68347 41069 ft 505 kts 135°
2026-05-04 22:23 40.60780 25.74758 41077 ft 505 kts 135°
2026-05-04 22:23 40.55712 25.81155 41080 ft 505 kts 135°
2026-05-04 22:24 40.50655 25.87566 41075 ft 505 kts 132°
2026-05-04 22:24 40.45939 25.94396 41082 ft 504 kts 130°
2026-05-04 22:25 40.41303 26.01316 41081 ft 505 kts 130°
2026-05-04 22:25 40.36670 26.08251 41084 ft 505 kts 130°
2026-05-04 22:26 40.32021 26.15181 41083 ft 506 kts 130°
2026-05-04 22:26 40.27358 26.22106 41081 ft 506 kts 130°
2026-05-04 22:27 40.22692 26.29017 41096 ft 507 kts 130°
2026-05-04 22:27 40.18013 26.35932 41103 ft 508 kts 130°
2026-05-04 22:28 40.13362 26.42793 41103 ft 508 kts 130°
2026-05-04 22:28 40.08468 26.49448 41102 ft 508 kts 134°
2026-05-04 22:29 40.03348 26.55832 41089 ft 509 kts 135°
2026-05-04 22:29 39.98230 26.62246 41105 ft 510 kts 134°
2026-05-04 22:30 39.93148 26.68707 41094 ft 510 kts 134°
2026-05-04 22:30 39.88083 26.75174 41104 ft 510 kts 134°
2026-05-04 22:31 39.83010 26.81641 41097 ft 510 kts 134°
2026-05-04 22:31 39.77959 26.88062 41107 ft 510 kts 134°
2026-05-04 22:32 39.72844 26.94476 41101 ft 511 kts 135°
2026-05-04 22:32 39.67652 27.00814 41102 ft 512 kts 135°
2026-05-04 22:33 39.62494 27.07091 41103 ft 512 kts 135°
2026-05-04 22:33 39.57309 27.13415 41102 ft 512 kts 135°
2026-05-04 22:34 39.52122 27.19739 41098 ft 512 kts 135°
2026-05-04 22:34 39.47315 27.26507 41091 ft 510 kts 129°
2026-05-04 22:35 39.42765 27.33565 41094 ft 510 kts 128°
2026-05-04 22:35 39.38252 27.40657 41087 ft 510 kts 128°
2026-05-04 22:36 39.33736 27.47742 41097 ft 511 kts 128°
2026-05-04 22:36 39.29197 27.54811 41084 ft 511 kts 128°
2026-05-04 22:37 39.24651 27.61866 41081 ft 512 kts 128°
2026-05-04 22:37 39.20093 27.68927 41081 ft 511 kts 128°
2026-05-04 22:38 39.15534 27.75975 41080 ft 512 kts 128°
2026-05-04 22:38 39.11000 27.82972 41078 ft 512 kts 128°
2026-05-04 22:39 39.06429 27.90011 41074 ft 512 kts 128°
2026-05-04 22:39 39.01857 27.97033 41075 ft 512 kts 128°
2026-05-04 22:40 38.97275 28.04053 41072 ft 512 kts 128°
2026-05-04 22:40 38.92692 28.11060 41071 ft 512 kts 128°
2026-05-04 22:41 38.88101 28.18065 41069 ft 512 kts 128°
2026-05-04 22:41 38.83516 28.25045 41065 ft 511 kts 128°
2026-05-04 22:42 38.78921 28.32025 41058 ft 512 kts 129°
2026-05-04 22:42 38.74359 28.38942 41067 ft 511 kts 129°
2026-05-04 22:43 38.69768 28.45887 41063 ft 511 kts 129°
2026-05-04 22:43 38.65166 28.52835 41059 ft 511 kts 129°
2026-05-04 22:44 38.60561 28.59772 41060 ft 511 kts 129°
2026-05-04 22:44 38.55925 28.66666 41068 ft 511 kts 131°
2026-05-04 22:45 38.51094 28.73252 41057 ft 511 kts 133°
2026-05-04 22:45 38.43737 28.83099 41055 ft 511 kts 133°
2026-05-04 22:46 38.38856 28.89705 41049 ft 512 kts 132°
2026-05-04 22:46 38.33980 28.96324 41068 ft 512 kts 133°
2026-05-04 22:47 38.29100 29.02937 41054 ft 512 kts 133°
2026-05-04 22:47 38.24215 29.09540 41045 ft 512 kts 133°
2026-05-04 22:48 38.19360 29.16087 40902 ft 512 kts 133°
2026-05-04 22:48 38.14476 29.22660 40673 ft 509 kts 133°
2026-05-04 22:49 38.12046 29.25924 40092 ft 510 kts 133°
2026-05-04 22:49 38.09602 29.29205 39525 ft 511 kts 133°
2026-05-04 22:49 38.07157 29.32484 39035 ft 510 kts 133°
2026-05-04 22:49 38.04721 29.35762 38497 ft 509 kts 132°
2026-05-04 22:50 38.02295 29.39043 37838 ft 509 kts 132°
2026-05-04 22:50 37.99872 29.42324 37128 ft 510 kts 131°
2026-05-04 22:50 37.97438 29.45618 36419 ft 511 kts 131°
2026-05-04 22:50 37.95000 29.48914 35724 ft 512 kts 131°
2026-05-04 22:51 37.92590 29.52165 35060 ft 513 kts 131°
2026-05-04 22:51 37.90140 29.55466 34396 ft 514 kts 131°
2026-05-04 22:51 37.87690 29.58762 33669 ft 515 kts 131°
2026-05-04 22:51 37.85230 29.62068 32854 ft 515 kts 131°
2026-05-04 22:52 37.82768 29.65372 32035 ft 516 kts 130°
2026-05-04 22:52 37.80288 29.68696 31168 ft 518 kts 130°
2026-05-04 22:52 37.77833 29.71978 30337 ft 520 kts 131°
2026-05-04 22:52 37.75303 29.75251 29418 ft 521 kts 132°
2026-05-04 22:53 37.72735 29.78486 28546 ft 521 kts 132°
2026-05-04 22:53 37.70167 29.81689 28061 ft 513 kts 132°
2026-05-04 22:53 37.67653 29.84816 27809 ft 500 kts 132°
2026-05-04 22:53 37.65203 29.87873 27528 ft 488 kts 132°
2026-05-04 22:54 37.62819 29.90858 27288 ft 477 kts 131°
2026-05-04 22:54 37.60486 29.93787 26781 ft 472 kts 131°
2026-05-04 22:54 37.58160 29.96717 26355 ft 473 kts 131°
2026-05-04 22:54 37.55819 29.99670 26282 ft 476 kts 131°
2026-05-04 22:55 37.53496 30.02612 25988 ft 473 kts 131°
2026-05-04 22:55 37.51126 30.05466 25490 ft 471 kts 135°
2026-05-04 22:55 37.48772 30.08243 24974 ft 470 kts 132°
2026-05-04 22:55 37.46439 30.11135 24394 ft 471 kts 131°
2026-05-04 22:56 37.44117 30.14045 23829 ft 470 kts 131°
2026-05-04 22:56 37.41808 30.16961 23160 ft 469 kts 131°
2026-05-04 22:56 37.39503 30.19876 22451 ft 468 kts 131°
2026-05-04 22:56 37.37216 30.22775 21747 ft 466 kts 131°
2026-05-04 22:57 37.34941 30.25666 21079 ft 464 kts 131°
2026-05-04 22:57 37.32685 30.28548 20409 ft 461 kts 131°
2026-05-04 22:57 37.30449 30.31418 19752 ft 457 kts 131°
2026-05-04 22:57 37.28244 30.34249 19131 ft 449 kts 131°
2026-05-04 22:58 37.26080 30.37033 18517 ft 442 kts 131°
2026-05-04 22:58 37.23952 30.39777 17857 ft 435 kts 131°
2026-05-04 22:58 37.21879 30.42452 17173 ft 429 kts 131°
2026-05-04 22:58 37.19816 30.45122 16493 ft 423 kts 131°
2026-05-04 22:59 37.17783 30.47757 15830 ft 417 kts 131°
2026-05-04 22:59 37.15646 30.50179 15159 ft 413 kts 144°
2026-05-04 22:59 37.13096 30.51799 14514 ft 407 kts 159°
2026-05-04 22:59 37.10496 30.53003 13895 ft 388 kts 160°
2026-05-04 23:00 37.08002 30.54117 13202 ft 372 kts 160°
2026-05-04 23:00 37.05586 30.55109 12510 ft 361 kts 163°
2026-05-04 23:00 37.03177 30.55933 11841 ft 355 kts 165°
2026-05-04 23:00 37.00819 30.56699 11174 ft 344 kts 165°
2026-05-04 23:01 36.98568 30.57421 10534 ft 334 kts 165°
2026-05-04 23:01 36.96345 30.58125 9903 ft 325 kts 165°
2026-05-04 23:01 36.94173 30.58806 9206 ft 318 kts 165°
2026-05-04 23:01 36.92050 30.59472 8518 ft 312 kts 165°
2026-05-04 23:02 36.89960 30.60127 7841 ft 307 kts 165°
2026-05-04 23:02 36.87900 30.60765 7183 ft 303 kts 165°
2026-05-04 23:02 36.85866 30.61385 6539 ft 299 kts 165°
2026-05-04 23:02 36.83864 30.62006 5921 ft 292 kts 163°
2026-05-04 23:03 36.82036 30.63006 5368 ft 283 kts 148°
2026-05-04 23:03 36.80368 30.64269 4828 ft 278 kts 146°
2026-05-04 23:03 36.78746 30.65549 4279 ft 273 kts 145°
2026-05-04 23:03 36.77154 30.66814 3736 ft 270 kts 145°
2026-05-04 23:04 36.75657 30.68172 3240 ft 261 kts 131°
2026-05-04 23:04 36.74714 30.69990 2806 ft 248 kts 110°
2026-05-04 23:04 36.74196 30.71992 2395 ft 238 kts 97°
2026-05-04 23:04 36.73867 30.73989 2060 ft 230 kts 96°
2026-05-04 23:05 36.73796 30.75847 1985 ft 198 kts 70°
2026-05-04 23:05 36.74236 30.77329 1986 ft 171 kts 57°
2026-05-04 23:05 36.74812 30.78535 1969 ft 154 kts 36°
2026-05-04 23:05 36.75706 30.79172 1985 ft 146 kts
2026-05-04 23:06 36.76706 30.79239 1992 ft 144 kts 359°
2026-05-04 23:06 36.77708 30.79315 1999 ft 143 kts
2026-05-04 23:06 36.78699 30.79439 1996 ft 143 kts
2026-05-04 23:06 36.79687 30.79583 1992 ft 143 kts
2026-05-04 23:07 36.80664 30.79714 1916 ft 143 kts
2026-05-04 23:07 36.81632 30.79829 1611 ft 137 kts
2026-05-04 23:07 36.82554 30.79956 1311 ft 129 kts
2026-05-04 23:07 36.83422 30.80093 1121 ft 125 kts
2026-05-04 23:08 36.84298 30.80214 969 ft 128 kts
2026-05-04 23:08 36.85189 30.80330 802 ft 129 kts
2026-05-04 23:08 36.86076 30.80460 623 ft 127 kts
2026-05-04 23:08 36.86944 30.80581 416 ft 124 kts
2026-05-04 23:09 36.87813 30.80689 279 ft 127 kts
2026-05-04 23:09 36.88399 30.80770 212 ft 122 kts
2026-05-04 23:09 36.89087 30.80860 200 ft 75 kts
2026-05-04 23:09 36.89435 30.80907 208 ft 39 kts
2026-05-04 23:10 36.89688 30.80942 205 ft 35 kts
2026-05-04 23:10 36.89879 30.80940 206 ft 24 kts 349°
2026-05-04 23:10 36.90022 30.80878 210 ft 10 kts 336°
2026-05-04 23:10 36.90070 30.80851 207 ft 8 kts 336°
2026-05-04 23:11 36.90093 30.80803 208 ft 6 kts 265°
2026-05-04 23:11 36.90063 30.80769 207 ft 7 kts 203°
2026-05-04 23:11 36.90004 30.80750 203 ft 11 kts 189°
2026-05-04 23:11 36.89921 30.80737 202 ft 13 kts 187°
2026-05-04 23:12 36.89825 30.80722 204 ft 13 kts 187°
2026-05-04 23:12 36.89731 30.80711 203 ft 15 kts 185°
2026-05-04 23:12 36.89624 30.80700 206 ft 16 kts 185°
2026-05-04 23:12 36.89565 30.80649 208 ft 10 kts 257°
2026-05-04 23:13 36.89569 30.80557 200 ft 11 kts 275°
2026-05-04 23:13 36.89577 30.80453 196 ft 13 kts 276°
2026-05-04 23:13 36.89587 30.80338 200 ft 13 kts 276°
2026-05-04 23:13 36.89596 30.80242 205 ft 12 kts 276°
2026-05-04 23:14 36.89606 30.80188 210 ft 3 kts 307°
2026-05-04 23:14 36.89628 30.80177 206 ft 5 kts 345°
2026-05-04 23:14 36.89664 30.80168 206 ft 4 kts 352°
2026-05-04 23:14 36.89688 30.80163 208 ft 1 kts 351°
2026-05-04 23:15 36.89694 30.80162 209 ft 1 kts 351°
2026-05-04 23:15 36.89696 30.80162 208 ft 0 kts 351°